Regional Weather Roundup
Issued by NWS

Home | Current Version | Previous Version | Text Only | Print | Product List | Glossary On
Versions: 1 2 3 4 5 6 7 8 9 10 11 12 13 14 15 16 17 18 19 20 21 22 23 24 25 26 27 28 29 30 31 32 33 34 35 36 37 38 39 40 41 42 43 44 45 46 47 48 49 50
000
ASUS42 KKEY 032310
RWRKEY

FLORIDA REGIONAL WEATHER ROUNDUP FOR THE FLORIDA KEYS
NATIONAL WEATHER SERVICE KEY WEST FLORIDA
700 PM EDT THU SEP 03 2015

...SOUTH FLORIDA AND THE KEYS...

CITY           SKY/WX    TMP DP  RH WIND       PRES   REMARKS
FORT MYERS     PTCLDY    88  73  61 NW12      29.91S HX  95
SW REGIONAL AP PTCLDY    90  73  57 NW6       29.92R HX  98
NAPLES         PTCLDY    85  74  69 S3        29.92S HX  92
MIAMI          CLOUDY    80  73  79 W12       29.94R
WEST KENDALL   CLOUDY    81  76  84 W10       29.94R
HOMESTEAD      CLOUDY    85  75  73 SW5       29.93R HX  94
MARATHON       MOCLDY    87  74  64 CALM      29.92S HX  95
BOCA CHICA NAS PTCLDY    88  74  63 CALM      29.92F HX  96
KEY WEST INTL  CLEAR     89  75  63 CALM      29.93S HX  99

...INTERNATIONAL WEATHER...

CITY           SKY/WX    TMP DP  RH WIND       PRES   REMARKS
NASSAU BAHAMAS NOT AVBL
CANCUN MEXICO  MOSUNNY   86  79  79 E7        29.90S HX  99
COZUMEL MEXICO MOSUNNY   84  77  79 SE7       29.90S HX  94

ADJACENT COASTAL WATERS...

STATION/POSITION TIME  SKY/WX   TEMP    WIND        PRES    WAVE
                                AIR SEA DIR/SP/G            HT/PER
                 (UTC)          (F)     (DEG/KT/KT) (MB)    (FT/S)
PULASKI SHOAL LI 2200                                 N/A
SAND KEY         2250            86      30/  3     1013.4F
SOMBRERO KEY     NOT AVBL
LONG KEY         2300            90 90     CALM     1014.2R
MOLASSES REEF    2300            85 87   CALM  /  1 1013.5R
FOWEY ROCKS      2300            85 87  170/  6/  7 1013.4R

$$


USA.gov is the U.S. government's official web portal to all federal, state and local government web resources and services.